Wind_Speed
28 27 27 26 26 26 25 24 23 23 23 24 24 24 25 25 25 24 22 23 22 22 22 22 22 22 22 21 20 19 18 17 16 15 15 15 14 14 13 13 13 12 11
29 29 29 28 28 27 26 26 26 26 25 24 25 26 26 26 26 26 24 24 24 23 23 23 24 24 23 23 22 21 20 20 19 18 17 17 17 16 15 15 15 15 14
31 31 30 29 28 27 27 27 27 26 26 25 25 26 27 27 27 27 26 25 24 24 24 24 25 25 25 24 23 23 23 22 22 22 21 19 19 19 19 18 17 17 16
32 32 32 31 30 29 29 28 28 27 26 26 27 27 27 28 28 27 27 27 26 25 25 25 25 25 25 25 25 24 24 24 24 23 23 22 21 20 20 20 19 19 19
34 34 34 32 31 31 30 29 29 28 27 27 27 27 28 28 29 29 28 27 27 27 26 26 26 26 25 26 25 25 24 24 25 25 24 24 23 23 22 22 22 21 21
35 35 35 34 32 31 31 30 29 29 28 29 28 27 27 29 29 30 30 28 26 27 27 26 27 26 25 26 25 25 24 24 24 25 25 25 24 24 23 24 24 23 23
36 36 35 34 34 33 32 31 31 30 30 30 30 28 28 29 30 30 30 29 27 27 27 27 28 27 26 25 25 24 24 24 25 25 26 25 25 24 24 24 25 25 25
39 38 37 37 36 35 35 34 32 31 31 31 30 28 27 28 29 29 30 29 28 28 28 28 29 28 26 26 25 24 23 23 24 24 24 24 24 24 24 24 24 24 25
41 40 40 40 39 38 37 35 34 33 32 32 31 30 29 29 28 28 29 30 30 29 29 30 29 28 27 26 25 25 24 23 23 23 23 23 23 23 22 23 24 23 25
41 41 41 41 41 40 38 37 36 35 34 33 33 33 32 31 30 30 29 30 30 30 29 30 29 29 28 27 26 25 25 23 23 23 23 22 22 22 21 21 22 22 23
41 41 41 41 40 40 39 38 37 37 36 35 35 34 34 33 32 32 31 30 30 30 30 30 29 30 29 29 28 27 26 24 24 23 22 21 21 20 20 20 20 21 21
40 40 40 40 39 39 39 39 38 38 38 37 37 36 36 35 34 33 32 32 31 31 32 32 32 31 31 31 30 29 27 26 25 24 22 21 20 20 20 19 19 19 20
39 40 40 40 40 40 40 40 39 39 39 39 38 38 38 37 36 35 35 35 34 33 34 33 34 34 33 32 31 30 29 27 26 25 23 22 21 20 19 19 18 18 18
39 41 42 42 42 42 41 41 41 41 41 41 41 40 39 39 38 38 38 38 37 36 35 35 35 35 35 34 33 33 31 30 29 27 25 24 22 21 20 18 17 17 17
40 42 43 43 43 44 44 44 44 44 43 43 43 43 42 41 39 40 40 40 40 39 37 36 36 37 37 36 34 35 34 33 31 29 27 26 24 22 20 19 18 17 17
41 42 43 43 44 45 45 45 46 46 45 45 45 44 44 44 43 42 41 42 42 41 40 38 37 38 38 37 37 37 37 36 34 32 29 28 26 24 22 20 19 18 17
43 44 44 45 45 46 47 47 47 47 47 47 47 47 46 46 46 46 45 44 44 44 42 41 40 39 40 39 39 37 37 38 37 35 32 30 28 26 24 22 20 19 18
44 45 45 46 46 47 48 48 49 49 49 49 49 49 49 49 48 48 48 47 47 47 46 44 44 42 41 41 40 40 40 39 38 37 35 33 30 28 26 24 22 20 19
44 45 45 46 46 47 47 48 49 49 50 50 50 51 51 51 51 50 50 49 49 49 49 48 46 45 44 42 42 43 43 41 40 38 37 35 32 30 28 26 24 23 21
44 44 44 44 45 45 46 47 48 49 49 50 50 51 52 53 53 53 53 52 52 52 51 51 49 47 46 45 44 44 44 43 41 39 38 36 34 32 30 28 26 25 23
42 42 41 41 42 43 44 45 46 46 47 49 49 51 52 52 53 54 55 54 53 54 53 54 52 50 49 47 45 44 45 44 43 40 39 38 36 34 32 30 28 27 25
40 39 39 38 39 39 40 41 42 43 45 46 47 49 51 52 52 53 54 55 55 55 55 55 54 53 51 50 48 47 46 46 44 42 41 39 38 36 34 32 30 28 27
37 36 36 35 35 35 36 37 38 39 41 43 45 47 49 50 51 52 53 55 56 56 56 56 55 54 53 52 51 49 47 46 45 45 43 41 40 38 37 35 33 31 28
34 33 33 32 32 31 32 33 35 37 38 40 43 45 47 48 50 50 51 52 54 55 56 57 57 56 54 53 53 52 51 49 47 46 45 42 41 39 38 37 35 33 31
32 32 31 30 29 29 28 28 30 32 34 37 39 41 43 45 47 48 49 51 52 54 55 56 58 57 56 55 54 54 52 50 48 47 45 42 41 41 39 38 36 35 32
31 30 29 28 27 26 24 24 25 27 29 31 34 37 40 43 45 46 47 48 49 51 53 54 56 57 57 57 56 54 53 51 50 48 46 44 42 41 40 39 37 35 34
Wind_Direction
289 288 287 282 281 281 282 279 280 280 275 271 265 261 259 255 254 254 253 250 249 245 241 238 238 236 236 236 236 234 233 232 230 229 228 226 226 226 224 223 223 222 220
288 287 286 283 281 281 278 279 276 276 277 273 266 261 257 253 254 252 252 250 247 246 244 238 235 236 235 236 236 235 235 234 232 232 231 230 230 230 229 228 227 226 225
289 289 288 285 283 282 280 280 276 274 275 272 267 263 259 254 252 250 249 247 245 245 243 238 237 235 235 235 235 235 235 236 235 235 235 234 233 233 232 232 231 228 227
292 293 291 287 286 285 284 280 277 274 272 269 267 263 259 255 251 247 245 244 244 244 241 239 237 234 234 234 235 235 236 236 236 236 235 234 234 235 235 233 233 231 230
290 289 289 287 285 285 283 279 275 273 272 270 267 263 260 255 249 246 245 245 245 242 240 239 235 233 235 235 234 235 235 234 236 237 236 235 236 236 236 236 236 234 233
288 286 285 283 282 282 281 277 275 273 271 269 269 265 260 253 247 246 244 244 243 240 237 237 232 232 232 231 231 233 235 235 235 235 236 236 236 236 238 238 237 236 236
285 283 282 280 279 279 280 276 273 273 269 267 266 263 260 254 249 247 245 242 240 238 234 233 230 229 228 227 227 230 233 234 233 233 233 234 235 237 238 239 240 239 238
282 281 279 279 277 277 277 275 273 271 268 265 263 258 257 253 249 246 244 241 239 236 231 231 228 227 224 224 226 229 231 231 231 230 230 230 233 236 239 239 240 240 238
280 279 277 276 275 274 273 271 270 268 266 262 261 258 255 252 248 245 243 239 238 235 231 228 227 226 223 224 226 227 226 226 226 225 226 228 231 234 236 237 238 240 238
279 278 276 275 273 272 270 269 267 265 264 262 259 257 254 250 246 243 240 238 236 232 228 226 226 224 223 223 223 223 222 223 224 223 224 227 229 230 232 234 237 239 238
278 277 276 274 272 271 269 267 264 263 261 259 258 256 252 249 245 240 237 234 231 229 228 226 226 223 224 223 221 221 220 221 223 222 223 224 225 226 229 232 235 237 238
280 278 275 273 271 270 268 266 264 261 259 257 256 255 252 248 244 238 236 233 230 229 228 227 226 226 224 223 222 220 220 219 220 219 219 221 222 224 226 229 233 235 237
282 279 276 274 272 270 268 265 262 260 258 256 254 252 250 247 243 238 236 234 231 229 227 226 226 226 223 222 221 221 220 219 219 218 218 219 220 222 224 227 230 232 233
283 280 277 274 271 269 267 264 261 259 257 255 253 251 249 246 243 239 236 234 231 228 226 226 225 225 224 222 222 222 221 219 220 219 219 219 219 220 223 224 227 230 231
286 283 279 275 273 270 267 264 261 259 256 254 252 249 247 245 243 240 236 233 230 228 226 225 224 223 222 222 222 222 221 220 220 220 220 219 219 219 221 224 227 230 233
288 284 280 277 274 271 268 265 262 259 256 253 251 249 247 245 242 239 236 233 230 228 226 224 222 222 222 222 222 223 221 219 219 220 220 220 220 220 222 224 226 230 233
289 286 282 278 275 271 268 265 262 259 256 253 251 249 246 243 241 238 236 233 230 227 226 224 224 223 223 222 222 222 219 219 219 220 220 221 221 222 223 226 227 230 234
291 287 284 279 276 272 269 266 262 258 255 253 250 248 245 242 240 238 235 233 230 228 225 225 224 223 223 223 222 220 218 218 219 220 220 221 223 224 225 226 228 231 235
293 289 286 281 277 273 270 266 262 258 255 253 250 248 245 242 239 238 235 233 230 227 225 224 224 224 222 223 222 221 218 218 218 220 221 222 224 226 227 228 229 230 233
295 292 288 284 279 275 271 267 263 258 254 251 249 246 243 241 238 237 235 233 231 228 225 224 223 222 222 223 222 221 220 219 219 221 222 223 224 226 228 229 230 231 232
298 294 291 287 282 276 272 267 262 257 253 249 247 244 241 239 237 236 234 233 231 228 226 224 222 222 222 222 222 222 221 221 220 221 223 224 225 226 228 229 231 232 234
301 297 293 289 284 278 273 268 262 256 251 247 244 242 239 237 235 234 233 232 230 228 227 225 222 223 223 223 221 221 222 222 222 223 224 224 226 227 228 229 231 232 234
304 301 298 293 288 281 275 268 262 256 250 246 243 240 237 234 233 233 231 230 229 227 226 225 224 224 224 223 222 221 221 221 222 223 224 225 226 229 229 229 231 232 234
309 306 302 297 292 285 278 269 261 256 251 246 242 239 235 233 231 231 230 229 228 226 225 225 225 224 223 223 223 221 220 221 222 223 224 225 226 228 229 230 231 232 234
317 313 308 302 297 290 282 273 263 255 249 244 241 237 232 229 227 227 228 228 228 226 225 224 224 225 224 223 223 223 221 222 223 223 224 225 226 227 229 230 230 231 233
323 320 315 309 303 294 284 277 266 256 248 242 238 235 231 227 226 225 225 226 226 226 224 222 223 223 224 224 224 223 223 222 222 222 223 223 224 225 227 229 229 230 232
Height
5863 5861 5860 5858 5858 5857 5857 5856 5856 5856 5855 5855 5856 5856 5857 5858 5859 5860 5862 5864 5865 5867 5868 5870 5872 5875 5877 5879 5881 5883 5885 5887 5889 5891 5893 5895 5897 5899 5901 5902 5904 5905 5907
5855 5854 5852 5851 5851 5850 5850 5850 5849 5849 5849 5848 5849 5850 5850 5851 5852 5854 5856 5858 5859 5861 5863 5865 5867 5869 5872 5874 5877 5879 5881 5883 5885 5888 5890 5892 5894 5896 5898 5900 5902 5903 5905
5848 5847 5845 5843 5843 5842 5843 5843 5842 5842 5842 5841 5842 5842 5843 5844 5845 5847 5850 5851 5853 5855 5857 5859 5862 5864 5867 5869 5872 5874 5876 5879 5881 5883 5886 5888 5890 5892 5894 5897 5898 5900 5902
5841 5839 5838 5836 5836 5835 5835 5835 5835 5834 5834 5834 5835 5835 5836 5837 5838 5840 5842 5844 5846 5848 5851 5854 5856 5858 5861 5864 5867 5869 5871 5874 5876 5879 5881 5884 5886 5888 5891 5893 5895 5897 5899
5833 5832 5831 5830 5829 5828 5827 5827 5827 5826 5826 5827 5827 5827 5828 5829 5831 5833 5835 5837 5840 5842 5844 5847 5850 5853 5856 5859 5861 5864 5866 5869 5871 5874 5877 5879 5881 5884 5887 5889 5891 5893 5895
5825 5824 5823 5821 5820 5820 5819 5819 5819 5818 5819 5819 5819 5820 5821 5822 5823 5826 5828 5830 5833 5835 5838 5840 5843 5847 5850 5853 5856 5859 5861 5863 5866 5869 5872 5874 5877 5879 5882 5884 5887 5889 5891
5817 5815 5814 5813 5812 5812 5811 5810 5810 5810 5810 5810 5811 5812 5813 5814 5816 5818 5821 5823 5826 5828 5831 5834 5837 5841 5844 5847 5850 5853 5856 5858 5861 5864 5866 5869 5872 5874 5877 5879 5882 5884 5887
5807 5806 5805 5803 5802 5802 5802 5802 5802 5802 5802 5802 5803 5803 5805 5807 5809 5811 5813 5815 5819 5821 5824 5828 5831 5835 5838 5842 5845 5848 5850 5853 5856 5859 5861 5864 5867 5869 5872 5874 5877 5879 5881
5798 5796 5795 5794 5793 5793 5793 5792 5792 5793 5793 5794 5794 5796 5797 5799 5801 5803 5805 5808 5811 5814 5818 5821 5825 5829 5833 5836 5839 5842 5845 5848 5851 5854 5857 5859 5862 5865 5867 5869 5872 5874 5876
5787 5785 5784 5783 5783 5783 5782 5782 5782 5783 5784 5784 5785 5787 5789 5791 5792 5795 5798 5801 5804 5807 5811 5815 5819 5823 5827 5830 5834 5837 5840 5843 5846 5849 5852 5855 5857 5860 5862 5865 5867 5869 5871
5775 5773 5772 5771 5771 5771 5771 5771 5771 5772 5773 5775 5776 5777 5779 5781 5783 5786 5790 5793 5797 5800 5804 5808 5812 5816 5821 5824 5828 5831 5835 5838 5841 5845 5847 5850 5853 5855 5858 5860 5862 5864 5866
5763 5761 5760 5759 5759 5759 5759 5759 5760 5761 5762 5764 5766 5767 5769 5772 5774 5777 5781 5785 5789 5793 5797 5801 5805 5810 5814 5818 5822 5826 5829 5833 5836 5840 5843 5846 5848 5851 5854 5856 5858 5860 5861
5751 5749 5748 5747 5747 5746 5747 5747 5748 5749 5750 5752 5754 5757 5759 5762 5765 5768 5773 5776 5780 5785 5789 5793 5797 5802 5807 5811 5815 5820 5824 5828 5831 5835 5838 5841 5844 5847 5849 5852 5853 5855 5857
5740 5737 5735 5734 5734 5733 5734 5734 5736 5737 5738 5740 5742 5745 5748 5751 5754 5758 5763 5767 5771 5776 5780 5785 5789 5794 5799 5804 5809 5813 5818 5822 5826 5829 5833 5836 5839 5842 5845 5848 5849 5851 5853
5727 5724 5722 5721 5720 5720 5720 5721 5722 5723 5725 5727 5730 5733 5736 5739 5743 5747 5751 5757 5762 5767 5772 5776 5781 5786 5791 5796 5801 5806 5811 5815 5820 5824 5827 5831 5834 5837 5840 5843 5845 5847 5848
5714 5711 5708 5707 5705 5705 5705 5705 5707 5708 5711 5713 5716 5720 5723 5727 5731 5735 5740 5745 5751 5756 5762 5767 5772 5778 5783 5788 5793 5798 5802 5808 5813 5818 5822 5826 5829 5832 5835 5838 5840 5842 5844
5700 5697 5694 5692 5690 5689 5689 5689 5691 5692 5695 5698 5701 5705 5710 5714 5718 5723 5728 5733 5739 5745 5751 5757 5762 5768 5774 5779 5784 5789 5795 5800 5806 5811 5815 5820 5823 5827 5830 5833 5835 5837 5839
5686 5682 5678 5676 5674 5672 5672 5672 5674 5676 5678 5682 5685 5689 5694 5699 5704 5709 5715 5720 5726 5733 5740 5746 5752 5758 5764 5769 5775 5781 5787 5792 5798 5803 5808 5813 5817 5821 5824 5827 5830 5832 5834
5671 5666 5662 5659 5656 5655 5654 5654 5656 5658 5661 5665 5668 5673 5678 5683 5689 5695 5701 5707 5713 5720 5727 5734 5740 5747 5753 5759 5765 5771 5777 5784 5790 5795 5800 5805 5810 5815 5818 5821 5824 5826 5829
5656 5650 5646 5642 5639 5637 5636 5636 5637 5639 5643 5647 5651 5656 5661 5667 5674 5680 5686 5693 5699 5707 5714 5721 5728 5735 5742 5748 5755 5761 5768 5775 5781 5787 5793 5798 5803 5807 5811 5815 5818 5821 5823
5641 5635 5630 5626 5622 5620 5619 5618 5619 5621 5625 5629 5633 5639 5644 5651 5657 5664 5671 5678 5685 5693 5700 5707 5716 5724 5731 5738 5745 5752 5758 5765 5772 5778 5785 5790 5795 5800 5804 5808 5811 5814 5817
5626 5621 5616 5611 5607 5604 5602 5601 5602 5604 5607 5611 5616 5622 5628 5634 5641 5648 5656 5663 5671 5679 5687 5694 5703 5711 5719 5727 5734 5741 5748 5756 5763 5770 5776 5781 5787 5792 5796 5801 5804 5808 5811
5614 5608 5602 5597 5594 5590 5588 5587 5587 5589 5591 5595 5600 5606 5612 5619 5626 5633 5641 5648 5656 5665 5673 5682 5690 5698 5707 5715 5723 5731 5738 5746 5753 5760 5766 5772 5778 5784 5788 5793 5797 5801 5804
5602 5596 5590 5585 5581 5578 5575 5573 5573 5575 5577 5581 5585 5590 5597 5604 5611 5619 5627 5635 5642 5651 5660 5669 5679 5686 5694 5702 5711 5719 5726 5734 5742 5749 5756 5763 5769 5775 5780 5785 5790 5794 5797
5593 5587 5580 5575 5570 5566 5563 5561 5561 5562 5565 5568 5572 5577 5583 5590 5598 5606 5614 5622 5630 5637 5645 5655 5664 5672 5681 5690 5698 5707 5715 5723 5732 5739 5747 5754 5760 5766 5771 5776 5781 5786 5790
5586 5578 5572 5566 5561 5556 5553 5552 5551 5552 5554 5557 5561 5566 5572 5579 5586 5593 5601 5609 5617 5624 5633 5642 5651 5659 5668 5677 5686 5696 5705 5713 5721 5729 5737 5744 5751 5756 5762 5768 5773 5778 5782